[ hide orbit diagram ]
For accurate long-term ephemerides, please instead use our Horizons system.This orbit viewer was implemented using two-body methods, and hence should not be used for determining accurate long-term trajectories (over several years or decades) or planetary encounter circumstances.
Orbital Elements at Epoch 2459000.5 (2020-May-31.0) TDB
Reference: JPL 25 (heliocentric ecliptic J2000)
Element | Value | Uncertainty (1-sigma) | Units |
e | .1480650833307081 | 2.6701e-08 | |
a | 2.429393180339444 | 8.4568e-09 | au |
q | 2.06968487664943 | 6.4202e-08 | au |
i | 3.477739546640084 | 4.3309e-06 | deg |
node | 24.00918788306276 | 5.774e-05 | deg |
peri | 67.69031044175971 | 6.0608e-05 | deg |
M | 184.7179084741623 | 1.8437e-05 | deg |
tp | 2459673.910966931673 (2022-Apr-04.41096693) | 7.2545e-05 | TDB |
period | 1383.073113659572 3.79 | 7.2218e-06 1.977e-08 | d yr |
n | .2602899271517543 | 1.3591e-09 | deg/d |
Q | 2.789101484029458 | 9.709e-09 | au |
|
| | Orbit Determination Parameters
Additional Information
|
[ show covariance matrix ]
Physical Parameter Table
Parameter |
Symbol |
Value |
Units |
Sigma |
Reference |
Notes |
absolute magnitude |
H |
15.0 |
|
n/a |
MPO474370 |
|
|
49029 (1998 QN102) Discovered 1998-Aug-26 by Elst, E. W. at La Silla |
Reference: 20021120/Numbers.arc | Last Updated: 2004-04-19 |
|
[ show close-approach data ]
Alternate Designations
1998 QN102 = 1987 VV1 = 2000 CS92 |
|
|